﻿測定場所 (Monitoring sites),日付 (Measurement date),時間 (Measurement time),線量率 最大値 (max) μGy/h,線量率 最小値 (min) μGy/h,線量率 平均値 (average) μGy/h,
新宿 (Shinjuku),2011-07-10,23:00～23:59,0.0610,0.0547,0.0575,
新宿 (Shinjuku),2011-07-10,22:00～22:59,0.0600,0.0544,0.0572,
新宿 (Shinjuku),2011-07-10,21:00～21:59,0.0605,0.0548,0.0573,
新宿 (Shinjuku),2011-07-10,20:00～20:59,0.0600,0.0544,0.0570,
新宿 (Shinjuku),2011-07-10,19:00～19:59,0.0600,0.0548,0.0575,
新宿 (Shinjuku),2011-07-10,18:00～18:59,0.0596,0.0549,0.0572,
新宿 (Shinjuku),2011-07-10,17:00～17:59,0.0595,0.0551,0.0576,
新宿 (Shinjuku),2011-07-10,16:00～16:59,0.0598,0.0534,0.0577,
新宿 (Shinjuku),2011-07-10,15:00～15:59,0.0606,0.0548,0.0579,
新宿 (Shinjuku),2011-07-10,14:00～14:59,0.0604,0.0543,0.0576,
新宿 (Shinjuku),2011-07-10,13:00～13:59,0.0613,0.0545,0.0580,
新宿 (Shinjuku),2011-07-10,12:00～12:59,0.0601,0.0551,0.0581,
新宿 (Shinjuku),2011-07-10,11:00～11:59,0.0617,0.0558,0.0583,
新宿 (Shinjuku),2011-07-10,10:00～10:59,0.0607,0.0562,0.0583,
新宿 (Shinjuku),2011-07-10,09:00～09:59,0.0608,0.0567,0.0586,
新宿 (Shinjuku),2011-07-10,08:00～08:59,0.0613,0.0564,0.0585,
新宿 (Shinjuku),2011-07-10,07:00～07:59,0.0620,0.0558,0.0585,
新宿 (Shinjuku),2011-07-10,06:00～06:59,0.0624,0.0563,0.0588,
新宿 (Shinjuku),2011-07-10,05:00～05:59,0.0610,0.0555,0.0578,
新宿 (Shinjuku),2011-07-10,04:00～04:59,0.0610,0.0548,0.0578,
新宿 (Shinjuku),2011-07-10,03:00～03:59,0.0601,0.0553,0.0580,
新宿 (Shinjuku),2011-07-10,02:00～02:59,0.0609,0.0558,0.0582,
新宿 (Shinjuku),2011-07-10,01:00～01:59,0.0602,0.0552,0.0579,
新宿 (Shinjuku),2011-07-10,00:00～00:59,0.0605,0.0548,0.0576,
新宿 (Shinjuku),2011-07-09,23:00～23:59,0.0606,0.0550,0.0576,
新宿 (Shinjuku),2011-07-09,22:00～22:59,0.0609,0.0552,0.0573,
新宿 (Shinjuku),2011-07-09,21:00～21:59,0.0610,0.0553,0.0579,
新宿 (Shinjuku),2011-07-09,20:00～20:59,0.0604,0.0553,0.0578,
新宿 (Shinjuku),2011-07-09,19:00～19:59,0.0600,0.0552,0.0576,
新宿 (Shinjuku),2011-07-09,18:00～18:59,0.0599,0.0554,0.0575,
新宿 (Shinjuku),2011-07-09,17:00～17:59,0.0608,0.0547,0.0578,
新宿 (Shinjuku),2011-07-09,16:00～16:59,0.0605,0.0558,0.0582,
新宿 (Shinjuku),2011-07-09,15:00～15:59,0.0599,0.0558,0.0579,
新宿 (Shinjuku),2011-07-09,14:00～14:59,0.0612,0.0562,0.0584,
新宿 (Shinjuku),2011-07-09,13:00～13:59,0.0616,0.0563,0.0585,
新宿 (Shinjuku),2011-07-09,12:00～12:59,0.0609,0.0559,0.0580,
新宿 (Shinjuku),2011-07-09,11:00～11:59,0.0608,0.0551,0.0583,
新宿 (Shinjuku),2011-07-09,10:00～10:59,0.0605,0.0557,0.0584,
新宿 (Shinjuku),2011-07-09,09:00～09:59,0.0623,0.0557,0.0590,
新宿 (Shinjuku),2011-07-09,08:00～08:59,0.0615,0.0568,0.0586,
新宿 (Shinjuku),2011-07-09,07:00～07:59,0.0618,0.0562,0.0586,
新宿 (Shinjuku),2011-07-09,06:00～06:59,0.0609,0.0564,0.0583,
新宿 (Shinjuku),2011-07-09,05:00～05:59,0.0624,0.0558,0.0584,
新宿 (Shinjuku),2011-07-09,04:00～04:59,0.0605,0.0562,0.0583,
新宿 (Shinjuku),2011-07-09,03:00～03:59,0.0614,0.0554,0.0583,
新宿 (Shinjuku),2011-07-09,02:00～02:59,0.0609,0.0551,0.0582,
新宿 (Shinjuku),2011-07-09,01:00～01:59,0.0627,0.0560,0.0581,
新宿 (Shinjuku),2011-07-09,00:00～00:59,0.0608,0.0535,0.0578,
新宿 (Shinjuku),2011-07-08,23:00～23:59,0.0605,0.0553,0.0578,
新宿 (Shinjuku),2011-07-08,22:00～22:59,0.0602,0.0559,0.0577,
新宿 (Shinjuku),2011-07-08,21:00～21:59,0.0607,0.0548,0.0578,
新宿 (Shinjuku),2011-07-08,20:00～20:59,0.0603,0.0555,0.0578,
新宿 (Shinjuku),2011-07-08,19:00～19:59,0.0613,0.0547,0.0577,
新宿 (Shinjuku),2011-07-08,18:00～18:59,0.0604,0.0555,0.0576,
新宿 (Shinjuku),2011-07-08,17:00～17:59,0.0606,0.0550,0.0577,
新宿 (Shinjuku),2011-07-08,16:00～16:59,0.0607,0.0557,0.0579,
新宿 (Shinjuku),2011-07-08,15:00～15:59,0.0614,0.0552,0.0579,
新宿 (Shinjuku),2011-07-08,14:00～14:59,0.0612,0.0555,0.0583,
新宿 (Shinjuku),2011-07-08,13:00～13:59,0.0599,0.0549,0.0579,
新宿 (Shinjuku),2011-07-08,12:00～12:59,0.0602,0.0555,0.0579,
新宿 (Shinjuku),2011-07-08,11:00～11:59,0.0603,0.0561,0.0582,
新宿 (Shinjuku),2011-07-08,10:00～10:59,0.0625,0.0562,0.0586,
新宿 (Shinjuku),2011-07-08,09:00～09:59,0.0621,0.0550,0.0584,
新宿 (Shinjuku),2011-07-08,08:00～08:59,0.0614,0.0556,0.0587,
新宿 (Shinjuku),2011-07-08,07:00～07:59,0.0631,0.0568,0.0601,
新宿 (Shinjuku),2011-07-08,06:00～06:59,0.0638,0.0583,0.0610,
新宿 (Shinjuku),2011-07-08,05:00～05:59,0.0629,0.0573,0.0600,
新宿 (Shinjuku),2011-07-08,04:00～04:59,0.0644,0.0582,0.0609,
新宿 (Shinjuku),2011-07-08,03:00～03:59,0.0649,0.0576,0.0613,
新宿 (Shinjuku),2011-07-08,02:00～02:59,0.0619,0.0566,0.0594,
新宿 (Shinjuku),2011-07-08,01:00～01:59,0.0611,0.0551,0.0582,
新宿 (Shinjuku),2011-07-08,00:00～00:59,0.0610,0.0562,0.0582,
新宿 (Shinjuku),2011-07-07,23:00～23:59,0.0603,0.0560,0.0585,
新宿 (Shinjuku),2011-07-07,22:00～22:59,0.0602,0.0555,0.0580,
新宿 (Shinjuku),2011-07-07,21:00～21:59,0.0604,0.0553,0.0581,
新宿 (Shinjuku),2011-07-07,20:00～20:59,0.0605,0.0557,0.0583,
新宿 (Shinjuku),2011-07-07,19:00～19:59,0.0628,0.0552,0.0579,
新宿 (Shinjuku),2011-07-07,18:00～18:59,0.0607,0.0548,0.0580,
新宿 (Shinjuku),2011-07-07,17:00～17:59,0.0603,0.0551,0.0581,
新宿 (Shinjuku),2011-07-07,16:00～16:59,0.0606,0.0551,0.0579,
新宿 (Shinjuku),2011-07-07,15:00～15:59,0.0611,0.0548,0.0584,
新宿 (Shinjuku),2011-07-07,14:00～14:59,0.0607,0.0556,0.0581,
新宿 (Shinjuku),2011-07-07,13:00～13:59,0.0617,0.0561,0.0581,
新宿 (Shinjuku),2011-07-07,12:00～12:59,0.0611,0.0544,0.0582,
新宿 (Shinjuku),2011-07-07,11:00～11:59,0.0611,0.0552,0.0583,
新宿 (Shinjuku),2011-07-07,10:00～10:59,0.0612,0.0546,0.0581,
新宿 (Shinjuku),2011-07-07,09:00～09:59,0.0599,0.0554,0.0580,
新宿 (Shinjuku),2011-07-07,08:00～08:59,0.0604,0.0555,0.0579,
新宿 (Shinjuku),2011-07-07,07:00～07:59,0.0620,0.0555,0.0588,
新宿 (Shinjuku),2011-07-07,06:00～06:59,0.0633,0.0576,0.0604,
新宿 (Shinjuku),2011-07-07,05:00～05:59,0.0617,0.0565,0.0594,
新宿 (Shinjuku),2011-07-07,04:00～04:59,0.0624,0.0571,0.0599,
新宿 (Shinjuku),2011-07-07,03:00～03:59,0.0631,0.0583,0.0608,
新宿 (Shinjuku),2011-07-07,02:00～02:59,0.0640,0.0586,0.0615,
新宿 (Shinjuku),2011-07-07,01:00～01:59,0.0621,0.0568,0.0588,
新宿 (Shinjuku),2011-07-07,00:00～00:59,0.0611,0.0565,0.0589,
新宿 (Shinjuku),2011-07-06,23:00～23:59,0.0617,0.0565,0.0589,
新宿 (Shinjuku),2011-07-06,22:00～22:59,0.0607,0.0571,0.0590,
新宿 (Shinjuku),2011-07-06,21:00～21:59,0.0617,0.0560,0.0584,
新宿 (Shinjuku),2011-07-06,20:00～20:59,0.0612,0.0558,0.0585,
新宿 (Shinjuku),2011-07-06,19:00～19:59,0.0610,0.0555,0.0583,
新宿 (Shinjuku),2011-07-06,18:00～18:59,0.0607,0.0553,0.0582,
新宿 (Shinjuku),2011-07-06,17:00～17:59,0.0604,0.0551,0.0584,
新宿 (Shinjuku),2011-07-06,16:00～16:59,0.0605,0.0562,0.0584,
新宿 (Shinjuku),2011-07-06,15:00～15:59,0.0613,0.0558,0.0586,
新宿 (Shinjuku),2011-07-06,14:00～14:59,0.0607,0.0554,0.0586,
新宿 (Shinjuku),2011-07-06,13:00～13:59,0.0610,0.0559,0.0590,
新宿 (Shinjuku),2011-07-06,12:00～12:59,0.0618,0.0565,0.0592,
新宿 (Shinjuku),2011-07-06,11:00～11:59,0.0628,0.0567,0.0592,
新宿 (Shinjuku),2011-07-06,10:00～10:59,0.0617,0.0567,0.0592,
新宿 (Shinjuku),2011-07-06,09:00～09:59,0.0617,0.0574,0.0594,
新宿 (Shinjuku),2011-07-06,08:00～08:59,0.0621,0.0564,0.0597,
新宿 (Shinjuku),2011-07-06,07:00～07:59,0.0622,0.0568,0.0596,
新宿 (Shinjuku),2011-07-06,06:00～06:59,0.0639,0.0564,0.0595,
新宿 (Shinjuku),2011-07-06,05:00～05:59,0.0617,0.0555,0.0592,
新宿 (Shinjuku),2011-07-06,04:00～04:59,0.0626,0.0574,0.0595,
新宿 (Shinjuku),2011-07-06,03:00～03:59,0.0617,0.0567,0.0593,
新宿 (Shinjuku),2011-07-06,02:00～02:59,0.0611,0.0563,0.0586,
新宿 (Shinjuku),2011-07-06,01:00～01:59,0.0606,0.0552,0.0583,
新宿 (Shinjuku),2011-07-06,00:00～00:59,0.0605,0.0556,0.0582,
新宿 (Shinjuku),2011-07-05,23:00～23:59,0.0612,0.0548,0.0582,
新宿 (Shinjuku),2011-07-05,22:00～22:59,0.0612,0.0559,0.0585,
新宿 (Shinjuku),2011-07-05,21:00～21:59,0.0614,0.0575,0.0591,
新宿 (Shinjuku),2011-07-05,20:00～20:59,0.0636,0.0575,0.0603,
新宿 (Shinjuku),2011-07-05,19:00～19:59,0.0658,0.0596,0.0623,
新宿 (Shinjuku),2011-07-05,18:00～18:59,0.0621,0.0557,0.0586,
新宿 (Shinjuku),2011-07-05,17:00～17:59,0.0615,0.0562,0.0588,
新宿 (Shinjuku),2011-07-05,16:00～16:59,0.0614,0.0558,0.0589,
新宿 (Shinjuku),2011-07-05,15:00～15:59,0.0610,0.0565,0.0588,
新宿 (Shinjuku),2011-07-05,14:00～14:59,0.0617,0.0562,0.0585,
新宿 (Shinjuku),2011-07-05,13:00～13:59,0.0614,0.0558,0.0582,
新宿 (Shinjuku),2011-07-05,12:00～12:59,0.0610,0.0563,0.0584,
新宿 (Shinjuku),2011-07-05,11:00～11:59,0.0628,0.0565,0.0591,
新宿 (Shinjuku),2011-07-05,10:00～10:59,0.0617,0.0565,0.0590,
新宿 (Shinjuku),2011-07-05,09:00～09:59,0.0620,0.0559,0.0587,
新宿 (Shinjuku),2011-07-05,08:00～08:59,0.0610,0.0562,0.0588,
新宿 (Shinjuku),2011-07-05,07:00～07:59,0.0612,0.0559,0.0591,
新宿 (Shinjuku),2011-07-05,06:00～06:59,0.0617,0.0569,0.0592,
新宿 (Shinjuku),2011-07-05,05:00～05:59,0.0636,0.0576,0.0602,
新宿 (Shinjuku),2011-07-05,04:00～04:59,0.0666,0.0602,0.0630,
新宿 (Shinjuku),2011-07-05,03:00～03:59,0.0636,0.0569,0.0605,
新宿 (Shinjuku),2011-07-05,02:00～02:59,0.0635,0.0585,0.0608,
新宿 (Shinjuku),2011-07-05,01:00～01:59,0.0680,0.0581,0.0637,
新宿 (Shinjuku),2011-07-05,00:00～00:59,0.0678,0.0584,0.0640,
新宿 (Shinjuku),2011-07-04,23:00～23:59,0.0604,0.0555,0.0582,
新宿 (Shinjuku),2011-07-04,22:00～22:59,0.0604,0.0548,0.0580,
新宿 (Shinjuku),2011-07-04,21:00～21:59,0.0606,0.0551,0.0583,
新宿 (Shinjuku),2011-07-04,20:00～20:59,0.0609,0.0551,0.0580,
新宿 (Shinjuku),2011-07-04,19:00～19:59,0.0607,0.0551,0.0580,
新宿 (Shinjuku),2011-07-04,18:00～18:59,0.0603,0.0553,0.0580,
新宿 (Shinjuku),2011-07-04,17:00～17:59,0.0608,0.0556,0.0579,
新宿 (Shinjuku),2011-07-04,16:00～16:59,0.0615,0.0553,0.0585,
新宿 (Shinjuku),2011-07-04,15:00～15:59,0.0606,0.0552,0.0582,
新宿 (Shinjuku),2011-07-04,14:00～14:59,0.0615,0.0560,0.0587,
新宿 (Shinjuku),2011-07-04,13:00～13:59,0.0621,0.0569,0.0589,
新宿 (Shinjuku),2011-07-04,12:00～12:59,0.0600,0.0558,0.0582,
新宿 (Shinjuku),2011-07-04,11:00～11:59,0.0614,0.0566,0.0591,
新宿 (Shinjuku),2011-07-04,10:00～10:59,0.0626,0.0572,0.0596,
新宿 (Shinjuku),2011-07-04,09:00～09:59,0.0621,0.0567,0.0590,
新宿 (Shinjuku),2011-07-04,08:00～08:59,0.0616,0.0560,0.0590,
新宿 (Shinjuku),2011-07-04,07:00～07:59,0.0614,0.0558,0.0590,
新宿 (Shinjuku),2011-07-04,06:00～06:59,0.0607,0.0558,0.0584,
新宿 (Shinjuku),2011-07-04,05:00～05:59,0.0619,0.0559,0.0587,
新宿 (Shinjuku),2011-07-04,04:00～04:59,0.0614,0.0562,0.0588,
新宿 (Shinjuku),2011-07-04,03:00～03:59,0.0610,0.0551,0.0586,
新宿 (Shinjuku),2011-07-04,02:00～02:59,0.0608,0.0555,0.0585,
新宿 (Shinjuku),2011-07-04,01:00～01:59,0.0606,0.0565,0.0585,
新宿 (Shinjuku),2011-07-04,00:00～00:59,0.0610,0.0560,0.0582,
